STARLINK AB

Last updated on June 19, 2020, 12:02 a.m. UTC

1 45755U 20038AB  20170.66667824  .00094069  11276-4  11714-3 0  9990
2 45755  52.9994 272.2340 0111199  69.1670  30.3448 15.96226374  2129

Satellite is not in orbit.